This demonstration page uses our WeatherBlox Daily Observations layout. Learn more.

Left ArrowRight Arrow

Hourly Observations for August 13, 2015

Temp ( °F °C ) Dew Point ( °F °C ) Humidity (%) Winds ( mph kmh ) Pressure ( in mb ) Visibility ( mi km ) Precip ( " mm )
12:15 am 00:15 Clear 70 21 67 19.2 90 90 S 5 7 30.06 1018 10 16 N/A
12:35 am 00:35 Clear 70 21 67 19.2 90 90 S 5 7 30.06 1018 10 16 N/A
12:55 am 00:55 Clear 69 20.6 66 19 91 91 Calm 30.06 1018 10 16 N/A
1:15 am 01:15 Clear 69 20.6 66 19 91 91 SSE 3 6 30.06 1018 10 16 N/A
1:35 am 01:35 Clear 69 20.5 66 18.9 91 91 S 5 7 30.06 1018 10 16 N/A
1:55 am 01:55 Clear 68 20.2 65 18.5 90 90 S 3 6 30.06 1018 10 16 N/A
2:15 am 02:15 Clear 69 20.3 65 18.6 90 90 S 3 6 30.03 1017 10 16 N/A
2:35 am 02:35 Clear 68 20 65 18.3 90 90 S 5 7 30.03 1017 10 16 N/A
2:55 am 02:55 Clear 68 20 65 18.3 90 90 Calm 30.03 1017 10 16 N/A
3:15 am 03:15 Clear 67 19.5 64 18 91 91 Calm 30.03 1017 10 16 N/A
3:35 am 03:35 Clear 68 20.1 65 18.1 88 88 Calm 30.03 1017 10 16 N/A
3:55 am 03:55 Clear 68 20 64 17.8 87 87 Calm 30.03 1017 10 16 N/A
4:15 am 04:15 Clear 68 20.1 64 17.8 87 87 Calm 30.03 1017 10 16 N/A
4:35 am 04:35 Clear 68 20 64 18 88 88 Calm 30.03 1017 10 16 N/A
4:55 am 04:55 Clear 68 20.1 64 18 88 88 Calm 30.03 1017 10 16 N/A
5:15 am 05:15 Clear 67 19.7 64 17.5 87 87 SSW 3 6 30.03 1017 10 16 N/A
5:35 am 05:35 Clear 67 19.4 64 17.5 89 89 S 5 7 30.03 1017 10 16 N/A
5:55 am 05:55 Clear 66 19.1 63 17.3 89 89 S 3 6 30.03 1017 10 16 N/A
6:15 am 06:15 Clear 67 19.3 64 17.5 89 89 SSE 5 7 30.03 1017 10 16 N/A
6:35 am 06:35 Clear 66 18.9 63 17.1 89 89 SSE 5 7 30.03 1017 10 16 N/A
6:55 am 06:55 Sunny 65 18.6 63 17.1 91 91 SSE 6 9 30.03 1017 10 16 0.00 0.00
7:15 am 07:15 Sunny 66 18.7 63 17.3 92 92 S 6 9 30.03 1017 10 16 N/A
7:35 am 07:35 Sunny 66 19.1 64 17.7 92 92 S 7 11 30.03 1017 10 16 N/A
7:55 am 07:55 Sunny 67 19.5 64 18 91 91 SSE 6 9 30.03 1017 10 16 N/A
8:15 am 08:15 Sunny 69 20.4 65 18.3 88 88 S 5 7 30.03 1017 10 16 N/A
8:35 am 08:35 Sunny 70 21.1 65 18.5 85 85 S 6 9 30.00 1016 10 16 N/A
8:55 am 08:55 Sunny 71 21.8 65 18.5 82 82 SSE 7 11 30.00 1016 10 16 N/A
9:15 am 09:15 Sunny 73 22.6 66 18.7 79 79 S 6 9 30.03 1017 10 16 N/A
9:35 am 09:35 Sunny 74 23.2 65 18.6 75 75 S 7 11 30.03 1017 10 16 N/A
9:55 am 09:55 Sunny 75 23.7 65 18.2 71 71 S 9 15 30.00 1016 10 16 N/A
10:15 am 10:15 Sunny 76 24.2 64 18 68 68 S 10 17 30.00 1016 10 16 N/A
10:35 am 10:35 Sunny 76 24.7 65 18.2 67 67 S 10 17 29.97 1015 10 16 N/A
10:55 am 10:55 Sunny 78 25.6 65 18.4 65 65 SSW 10 17 29.97 1015 10 16 N/A
11:15 am 11:15 Sunny 79 25.9 65 18.3 63 63 S 12 19 29.97 1015 10 16 N/A
11:35 am 11:35 Sunny 79 26.1 66 19.1 65 65 SSW 12 19 29.97 1015 10 16 N/A
11:55 am 11:55 Sunny 80 26.4 68 19.9 68 68 S 15 24 29.97 1015 10 16 N/A
12:15 pm 12:15 Sunny 80 26.8 68 20.2 67 67 S 15 24 29.97 1015 10 16 N/A
12:35 pm 12:35 Sunny 81 27 69 20.4 67 67 S 13 20 29.94 1014 10 16 N/A
1:00 pm 13:00 Sunny 82 27.6 69 20.6 66 66 SSW 15 24 29.91 1013 10 16 N/A
1:15 pm 13:15 Sunny 83 28.1 70 21 65 65 S 10 17 29.91 1013 10 16 N/A
1:35 pm 13:35 Sunny 83 28.5 70 21.2 65 65 SSW 14 22 29.91 1013 10 16 N/A
1:55 pm 13:55 Sunny 84 28.8 70 21.3 64 64 SSW 16 26 29.91 1013 10 16 N/A
2:15 pm 14:15 Sunny 84 28.9 70 21.3 64 64 SSW 10 17 29.91 1013 10 16 N/A
2:35 pm 14:35 Sunny 85 29.4 70 21.3 62 62 SSW 13 20 29.91 1013 10 16 N/A
2:55 pm 14:55 Sunny 85 29.6 70 21.2 61 61 SSW 12 19 29.88 1012 10 16 N/A
3:15 pm 15:15 Sunny 86 30 71 21.9 62 62 S 10 17 29.88 1012 10 16 N/A
3:35 pm 15:35 Sunny 86 30 71 21.5 60 60 S 10 17 29.88 1012 10 16 N/A
3:55 pm 15:55 Sunny 86 30.1 70 21.1 59 59 S 13 20 29.88 1012 10 16 N/A
4:15 pm 16:15 Sunny 86 30.1 70 21.2 59 59 S 12 19 29.88 1012 10 16 N/A
4:35 pm 16:35 Sunny 87 30.5 71 21.8 60 60 S 12 19 29.85 1011 10 16 N/A
4:55 pm 16:55 Sunny 87 30.4 71 21.4 59 59 S 13 20 29.88 1012 10 16 N/A
5:15 pm 17:15 Sunny 87 30.3 71 21.4 59 59 SSE 13 20 29.88 1012 10 16 N/A
5:35 pm 17:35 Sunny 86 30 70 21.3 60 60 SSE 14 22 29.88 1012 10 16 N/A
5:55 pm 17:55 Sunny 86 30 70 21 59 59 SSE 15 24 29.88 1012 10 16 N/A
6:15 pm 18:15 Sunny 85 29.6 70 20.9 60 60 SSE 12 19 29.88 1012 10 16 N/A
6:35 pm 18:35 Sunny 85 29.7 69 20.8 59 59 SSE 14 22 29.88 1012 10 16 N/A
6:55 pm 18:55 Sunny 85 29.6 70 20.9 60 60 SE 10 17 29.88 1012 10 16 N/A
7:15 pm 19:15 Sunny with Nearby Thunderstorms 84 28.8 69 20.6 61 61 SE 9 15 29.88 1012 10 16 N/A
7:35 pm 19:35 Sunny 82 28 69 20.8 65 65 SE 10 17 29.88 1012 10 16 N/A
7:55 pm 19:55 Sunny 82 27.6 69 20.5 65 65 SE 10 17 29.88 1012 10 16 N/A
8:15 pm 20:15 Sunny 81 27.1 69 20.6 68 68 SE 12 19 29.91 1013 10 16 N/A
8:35 pm 20:35 Sunny 80 26.6 68 20 67 67 ESE 13 20 29.91 1013 10 16 N/A
8:55 pm 20:55 Clear with Nearby Thunderstorms 79 26.1 67 19.7 68 68 ESE 12 19 29.91 1013 10 16 N/A
9:15 pm 21:15 Clear with Nearby Thunderstorms 79 26.1 67 19.3 66 66 ESE 14 22 29.91 1013 10 16 N/A
9:35 pm 21:35 Mostly Cloudy with Light Rain 76 24.2 68 20.2 78 78 ENE 10 17 30.00 1016 10 16 N/A
9:55 pm 21:55 Cloudy with Thunderstorms 75 23.7 68 20 80 80 NE 8 13 30.03 1017 10 16 N/A
10:15 pm 22:15 Windy with Storms Likely 74 23.2 67 19.5 80 80 SSE 21 33 29.94 1014 10 16 0.02 0.51
10:35 pm 22:35 Partly Cloudy 73 22.5 67 19.6 84 84 SSW 9 15 30.00 1016 10 16 0.02 0.51
10:55 pm 22:55 Clear 73 22.5 67 19.5 83 83 SSE 13 20 29.97 1015 10 16 0.02 0.51
11:15 pm 23:15 Clear 73 22.5 66 18.8 80 80 S 13 20 29.97 1015 10 16 N/A
11:35 pm 23:35 Clear 73 22.5 66 18.7 79 79 S 15 24 29.97 1015 10 16 N/A
11:55 pm 23:55 Clear 72 22.1 66 18.8 82 82 S 7 11 29.97 1015 10 16 N/A

Powered by AerisWeather